• In India
  • List of Countries
  • For 7 days
  • Water Temperature
  • Satellite Maps
  • Weather Map
  • Weather Widgets
  • user-avatar
    Login

    Hourly Weather Metelin

    Today, 21 September, Friday

    Time Temperature Precipitation Wind Pressure Humidity
    00:00 +18°C° 0 mm 1 mps 746 mmHg 71%
    01:00 +18°C° 0 mm 1 mps 746 mmHg 72%
    02:00 +16°C° 0 mm 1 mps 746 mmHg 74%
    03:00 +16°C° 0 mm 1 mps 746 mmHg 75%
    04:00 +16°C° 0 mm 1 mps 746 mmHg 77%
    05:00 +15°C° 0 mm 1 mps 745 mmHg 78%
    06:00 +16°C° 0 mm 1 mps 745 mmHg 77%
    07:00 +18°C° 0 mm 1 mps 745 mmHg 75%
    08:00 +18°C° 0 mm 2 mps 746 mmHg 71%
    09:00 +20°C° 0 mm 2 mps 745 mmHg 66%
    10:00 +23°C° 0 mm 2 mps 745 mmHg 60%
    11:00 +24°C° 0 mm 3 mps 745 mmHg 55%
    12:00 +25°C° 0 mm 3 mps 745 mmHg 52%
    13:00 +26°C° 0 mm 3 mps 744 mmHg 49%
    14:00 +27°C° 0 mm 3 mps 744 mmHg 46%
    15:00 +27°C° 0 mm 3 mps 744 mmHg 50%
    16:00 +26°C° 0 mm 3 mps 743 mmHg 54%
    17:00 +26°C° 0 mm 3 mps 743 mmHg 57%
    18:00 +24°C° 0 mm 3 mps 743 mmHg 62%
    19:00 +21°C° 0 mm 3 mps 742 mmHg 67%
    20:00 +20°C° 0 mm 3 mps 742 mmHg 72%
    21:00 +19°C° 0 mm 3 mps 742 mmHg 71%
    22:00 +19°C° 0 mm 3 mps 742 mmHg 71%
    23:00 +18°C° 0 mm 4 mps 742 mmHg 71%

    Tomorrow, 22 September, Saturday

    Time Temperature Precipitation Wind Pressure Humidity
    00:00 +18°C° 0 mm 4 mps 742 mmHg 71%
    01:00 +18°C° 0 mm 4 mps 741 mmHg 70%
    02:00 +17°C° 0 mm 4 mps 741 mmHg 70%
    03:00 +17°C° 0 mm 4 mps 741 mmHg 68%
    04:00 +17°C° 0 mm 4 mps 741 mmHg 66%
    05:00 +17°C° 0 mm 4 mps 741 mmHg 65%
    06:00 +16°C° 0.3 mm 5 mps 742 mmHg 70%
    07:00 +16°C° 0.3 mm 5 mps 742 mmHg 75%
    08:00 +16°C° 0.3 mm 6 mps 743 mmHg 79%
    09:00 +15°C° 0.5 mm 5 mps 744 mmHg 81%
    10:00 +14°C° 0.5 mm 4 mps 745 mmHg 83%
    11:00 +13°C° 0.5 mm 3 mps 745 mmHg 84%
    12:00 +13°C° 0.7 mm 3 mps 746 mmHg 84%
    13:00 +13°C° 0.7 mm 3 mps 746 mmHg 84%
    14:00 +12°C° 0.7 mm 3 mps 746 mmHg 84%
    15:00 +12°C° 0.2 mm 3 mps 746 mmHg 84%
    16:00 +12°C° 0.2 mm 3 mps 746 mmHg 84%
    17:00 +12°C° 0.2 mm 3 mps 745 mmHg 84%
    18:00 +11°C° 0 mm 4 mps 745 mmHg 87%
    19:00 +11°C° 0 mm 4 mps 746 mmHg 89%
    20:00 +10°C° 0 mm 4 mps 746 mmHg 91%
    21:00 +10°C° 0 mm 4 mps 745 mmHg 90%
    22:00 +10°C° 0 mm 4 mps 745 mmHg 89%
    23:00 +8°C° 0 mm 4 mps 745 mmHg 87%

    Day after tomorrow, 23 September, Sunday

    Time Temperature Precipitation Wind Pressure Humidity
    00:00 +9°C° 0 mm 3 mps 745 mmHg 87%
    01:00 +9°C° 0 mm 3 mps 745 mmHg 87%
    02:00 +9°C° 0 mm 3 mps 745 mmHg 87%
    03:00 +8°C° 0 mm 3 mps 745 mmHg 87%
    04:00 +8°C° 0 mm 3 mps 745 mmHg 87%
    05:00 +8°C° 0 mm 3 mps 745 mmHg 86%
    06:00 +8°C° 0 mm 4 mps 745 mmHg 83%
    07:00 +10°C° 0 mm 4 mps 745 mmHg 80%
    08:00 +10°C° 0 mm 4 mps 745 mmHg 77%
    09:00 +12°C° 0 mm 5 mps 745 mmHg 71%
    10:00 +13°C° 0 mm 6 mps 745 mmHg 64%
    11:00 +15°C° 0 mm 6 mps 746 mmHg 57%
    12:00 +15°C° 0.1 mm 6 mps 745 mmHg 55%
    13:00 +16°C° 0.1 mm 6 mps 745 mmHg 53%
    14:00 +16°C° 0.1 mm 7 mps 745 mmHg 51%
    15:00 +16°C° 0 mm 6 mps 745 mmHg 54%
    16:00 +16°C° 0 mm 5 mps 744 mmHg 57%
    17:00 +16°C° 0 mm 3 mps 744 mmHg 60%
    18:00 +14°C° 0 mm 3 mps 744 mmHg 64%
    19:00 +13°C° 0 mm 3 mps 744 mmHg 69%
    20:00 +12°C° 0 mm 3 mps 744 mmHg 73%
    21:00 +12°C° 0 mm 3 mps 743 mmHg 74%
    22:00 +12°C° 0 mm 3 mps 742 mmHg 75%
    23:00 +12°C° 0 mm 3 mps 742 mmHg 75%

    24 September, Monday

    Time Temperature Precipitation Wind Pressure Humidity
    00:00 +12°C° 0.3 mm 3 mps 740 mmHg 77%
    01:00 +12°C° 0.3 mm 4 mps 739 mmHg 79%
    02:00 +11°C° 0.3 mm 4 mps 738 mmHg 81%
    03:00 +12°C° 3.7 mm 5 mps 736 mmHg 84%
    04:00 +12°C° 3.7 mm 5 mps 734 mmHg 86%
    05:00 +11°C° 3.7 mm 6 mps 733 mmHg 88%
    06:00 +12°C° 1.6 mm 7 mps 731 mmHg 87%
    07:00 +13°C° 1.6 mm 9 mps 730 mmHg 87%
    08:00 +13°C° 1.6 mm 10 mps 728 mmHg 86%
    09:00 +13°C° 0.4 mm 11 mps 729 mmHg 83%
    10:00 +12°C° 0.4 mm 13 mps 730 mmHg 80%
    11:00 +10°C° 0.4 mm 14 mps 730 mmHg 77%
    12:00 +10°C° 0.1 mm 14 mps 733 mmHg 76%
    13:00 +9°C° 0.1 mm 13 mps 735 mmHg 75%
    14:00 +8°C° 0.1 mm 12 mps 737 mmHg 74%
    15:00 +9°C° 0.1 mm 10 mps 738 mmHg 71%
    16:00 +10°C° 0.1 mm 9 mps 739 mmHg 67%
    17:00 +11°C° 0.1 mm 8 mps 740 mmHg 63%
    18:00 +10°C° 0 mm 8 mps 741 mmHg 64%
    19:00 +9°C° 0 mm 7 mps 741 mmHg 65%
    20:00 +8°C° 0 mm 7 mps 742 mmHg 66%
    21:00 +8°C° 0 mm 7 mps 743 mmHg 68%
    22:00 +6°C° 0 mm 7 mps 743 mmHg 71%
    23:00 +6°C° 0 mm 7 mps 744 mmHg 73%

    25 September, Tuesday

    Time Temperature Precipitation Wind Pressure Humidity
    00:00 +6°C° 0 mm 8 mps 744 mmHg 73%
    01:00 +6°C° 0 mm 8 mps 745 mmHg 73%
    02:00 +5°C° 0 mm 8 mps 745 mmHg 72%
    03:00 +5°C° 0 mm 8 mps 746 mmHg 73%
    04:00 +5°C° 0 mm 7 mps 747 mmHg 73%
    05:00 +4°C° 0 mm 7 mps 747 mmHg 73%
    06:00 +4°C° 0 mm 7 mps 748 mmHg 72%
    07:00 +5°C° 0 mm 7 mps 749 mmHg 71%
    08:00 +5°C° 0 mm 8 mps 749 mmHg 70%
    09:00 +6°C° 0 mm 8 mps 750 mmHg 66%
    10:00 +7°C° 0 mm 8 mps 750 mmHg 61%
    11:00 +9°C° 0 mm 8 mps 751 mmHg 57%
    12:00 +10°C° 0.3 mm 8 mps 751 mmHg 57%
    13:00 +10°C° 0.3 mm 8 mps 751 mmHg 57%
    14:00 +10°C° 0.3 mm 9 mps 751 mmHg 57%
    15:00 +9°C° 0.1 mm 8 mps 751 mmHg 57%
    16:00 +9°C° 0.1 mm 7 mps 752 mmHg 57%
    17:00 +9°C° 0.1 mm 7 mps 752 mmHg 57%
    18:00 +8°C° 0 mm 6 mps 753 mmHg 59%
    19:00 +7°C° 0 mm 5 mps 753 mmHg 62%
    20:00 +6°C° 0 mm 4 mps 754 mmHg 65%
    21:00 +6°C° 0 mm 4 mps 754 mmHg 66%
    22:00 +6°C° 0 mm 4 mps 754 mmHg 66%
    23:00 +5°C° 0 mm 4 mps 754 mmHg 67%

    26 September, Wednesday

    Time Temperature Precipitation Wind Pressure Humidity
    00:00 +6°C° 0 mm 5 mps 754 mmHg 69%
    01:00 +6°C° 0 mm 5 mps 754 mmHg 71%
    02:00 +6°C° 0 mm 5 mps 754 mmHg 73%
    03:00 +5°C° 0 mm 6 mps 753 mmHg 75%
    04:00 +5°C° 0 mm 6 mps 753 mmHg 77%
    05:00 +5°C° 0 mm 6 mps 753 mmHg 79%
    06:00 +5°C° 0.1 mm 6 mps 753 mmHg 78%
    07:00 +6°C° 0.1 mm 7 mps 753 mmHg 77%
    08:00 +6°C° 0.1 mm 7 mps 752 mmHg 76%
    09:00 +7°C° 0.2 mm 8 mps 752 mmHg 74%
    10:00 +9°C° 0.2 mm 8 mps 752 mmHg 72%
    11:00 +8°C° 0.2 mm 9 mps 752 mmHg 70%
    12:00 +10°C° 0.1 mm 8 mps 752 mmHg 68%
    13:00 +10°C° 0.1 mm 8 mps 752 mmHg 67%
    14:00 +10°C° 0.1 mm 8 mps 752 mmHg 65%
    15:00 +11°C° 0 mm 7 mps 751 mmHg 65%
    16:00 +11°C° 0 mm 6 mps 751 mmHg 65%
    17:00 +12°C° 0 mm 5 mps 751 mmHg 65%
    18:00 +10°C° 0 mm 5 mps 751 mmHg 65%
    19:00 +11°C° 0 mm 4 mps 751 mmHg 65%
    20:00 +10°C° 0 mm 4 mps 751 mmHg 65%
    21:00 +10°C° 0 mm 4 mps 751 mmHg 66%
    22:00 +8°C° 0 mm 4 mps 751 mmHg 68%
    23:00 +8°C° 0 mm 4 mps 751 mmHg 69%
    Show more